Regional Weather Roundup
Issued by NWS

Home | Current Version | Previous Version | Text Only | Print | Product List | Glossary Off
Versions: 1 2 3 4 5 6 7 8 9 10 11 12 13 14 15 16 17 18 19 20 21 22 23 24 25 26 27 28 29 30 31 32 33 34 35 36 37 38 39 40 41 42 43 44 45 46 47 48 49 50

000
ASUS43 KLMK 171110
RWRKY
KENTUCKY REGIONAL WEATHER ROUNDUP
NATIONAL WEATHER SERVICE LOUISVILLE KY
700 AM EDT TUE OCT 17 2017

NOTE "FAIR" INDICATES FEW OR NO CLOUDS BELOW 12,000 FEET
WITH NO SIGNIFICANT WEATHER AND/OR OBSTRUCTIONS TO VISIBILITY.

KYZ001>023-026-027-061>063-070>075-171200-
WESTERN AND SOUTH CENTRAL KENTUCKY

CITY           SKY/WX    TMP DP  RH WIND       PRES   REMARKS
PADUCAH        CLEAR     38  35  89 CALM      30.34R
HENDERSON      CLEAR     37  36  96 CALM      30.36R
OWENSBORO      CLEAR     41  39  93 S5        30.36R
HOPKINSVILLE   CLEAR     41  39  95 NE3       30.34R
BOWLING GREEN  CLEAR     39  39 100 CALM      30.36R FOG
GLASGOW        CLEAR    N/A N/A N/A CALM      30.36R
$$

KYZ024-025-028>034-038-045-046-053-171200-
NORTH CENTRAL KENTUCKY

CITY           SKY/WX    TMP DP  RH WIND       PRES   REMARKS
LOUISVILLE/SDF CLEAR     43  40  89 SE3       30.36R
LOUISVILLE/LOU CLEAR     40  40 100 CALM      30.37R
FORT KNOX      CLEAR     37  37 100 CALM      30.34R FOG
$$

KYZ035>037-039>044-047>052-055>060-089>105-171200-
NORTHEAST KENTUCKY

CITY           SKY/WX    TMP DP  RH WIND       PRES   REMARKS
LEXINGTON      CLEAR     39  34  82 CALM      30.36R
COVINGTON      CLEAR     40  40 100 CALM      30.35R
FRANKFORT      CLEAR     38  34  85 CALM      30.35R
$$

KYZ054-064>069-076>088-106>120-171200-
SOUTHEAST KENTUCKY

CITY           SKY/WX    TMP DP  RH WIND       PRES   REMARKS
JACKSON        CLEAR     41  39  93 CALM      30.35R
LONDON         CLEAR     38  37  97 CALM      30.35R
SOMERSET       CLEAR     36  36 100 CALM      30.37R
MIDDLESBORO    FOG       39  39 100 CALM      30.38R VSB 1/2
MONTICELLO     PTSUNNY   34  34 100 NE8       30.37R WCI  27
$$





USA.gov is the U.S. government's official web portal to all federal, state and local government web resources and services.